www.pogodaiklimat.ru

Погода и климат >> Архив погоды >> Боливия >> Santa Rosa


ПОГОДА в Santa Rosa

  • Прогноз погоды в Santa Rosa
  • Монитор погоды в Santa Rosa
  • Климат города

АРХИВ ПОГОДЫ в Santa Rosa

Время (UTC), дата Ветер
(напр.,м/с)
 
Видим.   Явления Облачность Т
(С)
Тd
(С)
f
(%)
Тe
(С)
Тes
(С)
Комфортность P
(гПа)
Po
(гПа)
Тmin
(С)
Tmax
(С)
R
(мм)
R24
(мм)
S
(см)
12 15.10 штиль 0 15 км 8/3 500 м
[Sc Ci]
+25.6 +22.8 85 +34 +37 очень
душно
1010.0 990.6 +22.8 5
15 15.10 СЗ 5 15 км 5/3 500 м
[Cu med, cong Ci]
+31.8 +23.4 61 +43 +49 опасность
перегрева
1012.5 993.3
18 15.10 СЗ 5 8000 м осадки на расстоянии 8/5 500 м
[Cb cap Ci]
+34.5 +22.6 50 +44 +48 опасность
перегрева
1007.8 988.5
21 15.10 СЗ 5 8000 м осадки на расстоянии 8/5 500 м
[Cb cap Ci]
+34.0 +22.5 51 +43 +44 опасность
перегрева
1005.3 986.0 +36.4
12 16.10 штиль 0 7000 м дым 8/3 500 м
[Cb cap Ci]
+24.6 +23.2 92 +33 +36 очень
душно
1008.3 988.9 +22.4
15 16.10 СЗ 8 15 км 8/5 500 м
[Cu med, cong Ci]
+32.0 +24.1 63 +44 +46 опасность
перегрева
1008.2 988.9
18 16.10 СЗ 8 15 км 6/6 500 м
[Cb cap]
+35.5 +21.9 45 +44 +45 опасность
перегрева
1005.1 986.0
21 16.10 СЗ 8 15 км 5/3 500 м
[Cu med, cong Ci]
+35.0 +21.3 45 +43 +43 опасность
перегрева
1002.5 983.5 +35.8
12 17.10 С 5 15 км 5/0
[Ci fib]
+27.5 +23.0 76 +37 +38 очень
душно
1008.7 989.6 +23.8
15 17.10 С 8 15 км 5/3 500 м
[Cu med, cong Ci]
+34.5 +22.3 49 +43 +46 опасность
перегрева
1009.8 990.6
18 17.10 СЗ 8 8000 м осадки на расстоянии туман 8/5 500 м
[Cb cap Ci]
+36.0 +22.9 47 +46 +47 опасность
перегрева
1005.0 985.7
21 17.10 СЗ 8 8000 м осадки на расстоянии туман 8/5 500 м
[Cb cap Ci]
+34.8 +22.6 49 +44 +44 опасность
перегрева
1002.8 983.6 +36.8
12 18.10 СЗ 8 7000 м дым 8/0
[Ci]
+27.2 +22.8 77 +36 +37 очень
душно
1007.2 988.8 +22.6
15 18.10 СЗ 8 15 км 8/0
[Ci]
+33.0 +22.9 55 +43 +46 опасность
перегрева
1008.8 989.5
18 18.10 СЗ 8 8000 м дым 8/4 500 м
[Cb cap Ci]
+36.2 +23.1 47 +46 +48 опасность
перегрева
1006.2 986.9
21 18.10 СЗ 5 7000 м дым 8/4 500 м
[Cb cap Ci]
+34.4 +23.0 52 +45 +46 опасность
перегрева
1002.3 983.1 +36.6
12 19.10 С 6 8000 м дым 8/0 2000 м
[Ac trans Ci]
+27.2 +23.1 78 +36 +37 очень
душно
1009.6 990.2 +23.7
15 19.10 С 8 15 км 8/0 2000 м
[Ac trans Ci]
+32.8 +22.8 56 +43 +46 опасность
перегрева
1010.4 991.2
18 19.10 СЗ 8 8000 м дым 8/4 500 м
[Cb cap Ac trans Ci]
+34.5 +19.9 42 +40 +42 очень
душно
1005.2 985.9
21 19.10 СЗ 5 8000 м осадки на расстоянии 8/4 120 м
[Cb cap Ci]
+35.2 +21.9 46 +43 +44 опасность
перегрева
1002.1 982.9 +37.6
12 20.10 штиль 0 8000 м осадки на расстоянии 10/4 450 м
[Cb cap Ac trans Cs]
+24.2 +22.8 92 +32 +34 очень
душно
1009.6 991.0 +21.8 3
18 20.10 ЮВ 3 15 км 10/5 500 м
[Cb cap Cs]
+27.4 +22.8 76 +36 +43 очень
душно
1010.7 991.3
21 20.10 С 3 15 км 8/4 500 м
[Cb cap Ci]
+27.4 +22.8 76 +36 +38 очень
душно
1007.4 988.0 +29.6
12 21.10 штиль 0 15 км 6/3 450 м
[Sc Ac trans Ci]
+24.5 +22.4 88 +32 +35 очень
душно
1010.4 991.0 +21.8
15 21.10 штиль 0 15 км 5/4 500 м
[Cb cap Ac trans]
+31.2 +22.1 58 +40 +54 опасность
солнечного
удара
1011.8 992.5
18 21.10 ЮВ 3 15 км 5/5 500 м
[Cb cap]
+35.4 +22.8 48 +45 +54 опасность
перегрева
1007.6 988.5
21 21.10 ЮВ 2 15 км 3/3 500 м
[Cu med, cong]
+34.5 +22.8 51 +44 +47 опасность
перегрева
1003.0 984.0 +36.4

 

Местоположение метеостанции Santa Rosa (Боливия): широта -14.17 долгота -66.90 высота над уровнем моря 225 м.

В архиве по умолчанию представлена погода в Santa Rosa за последнюю неделю. Архивные данные за месяц целиком и за предыдущие месяцы, начиная с января 2011 года, Вы можете получить, выбрав интересующий диапазон дат из раскрывающегося списка и нажав кнопку "Ввод!".


*Определитесь, кто Вы:
робот инопланетянин человек

Внимание! Время в таблицах - всемирное. Для получения местного времени необходимо прибавить поправку, которая в Santa Rosa равна -4 ч.

Смотрите также архив погоды в соседних городах и на ближайших метеорологических станциях:

Погода в Reyes (Боливия) (54 км)
Погода в San Borja (Боливия) (77 км)
Погода в Rurrenabaque (Боливия) (78 км)
Погода в San Ignacio De Moxo (Боливия) (162 км)
Погода в Santa Ana (Боливия) (165 км)
Погода в Baures (Боливия) (165 км)
Погода в Trinidad (Боливия) (226 км)
Погода в San Ramon (Боливия) (257 км)
Погода в San Joaquin (Боливия) (257 км)
Погода в Ovejuyo (Боливия) (289 км)

Пояснения к столбцам:

Ветер - указаны скорость ветра в м/с - средняя за 10 мин, порывы в срок и между сроками (в фигурных скобках) и направление, откуда дует ветер: С - северный, СВ - северо-восточный, В - восточный, ЮВ - юго-восточный, Ю - южный, ЮЗ - юго-западный, З - западный, СЗ - северо-западный.
Видимость - горизонтальная дальность видимости в метрах или километрах. При видимости от 1 до 10 км при отсутствии осадков обычно наблюдается дымка, при ухудшении видимости до 1 км и менее - туман. В сухую погоду видимость может ухудшаться дымом, пылью или мглою.
Явления - указаны атмосферные явления, наблюдавшиеся в срок или в последний час перед сроком; фигурными скобками обозначены явления, наблюдавшиеся между сроками (за 1-3 часа до срока); квадратными скобками обозначены град или гололедные отложения с указанием их диаметра в мм.
Облачность - указаны через наклонную черту общая и нижняя облачность в баллах и высота нижней границы облаков в метрах; квадратными скобками обозначены формы облаков: Ci - перистые, Cs - перисто-слоистые, Cc - перисто-кучевые, Ac - высококучевые, As - высокослоистые, Sc - слоисто-кучевые, Ns - слоисто-дождевые, Cu - кучевые, Cb - кучево-дождевые. Подробнее классификацию облаков см. в Атласе облаков (PDF).
T - Температура воздуха - температура, измеренная на высоте 2 м над землей.
Td - Температура точки росы - температура, при понижении до которой содержащийся в воздухе водяной пар достигнет насыщения.
f - Относительная влажность воздуха - влажноcть воздуха, измеренная на высоте 2 м над землей.
Te - Эффективная температура - температура, которую ощущает одетый по сезону человек в тени. Характеристика душности погоды. При расчете учитывается влияние влажности воздуха и скорости ветра на теплоощущения человека.
Tes - Эффективная температура на солнце - температура, которую ощущает человек, с поправкой на солнечный нагрев. Характеристика знойности погоды. Зависит от высоты солнца над горизонтом, облачности и скорости ветра. Ночью, в пасмурную погоду, а также при ветре 12 м/с и более поправка равна нулю.
P - Атмосферное давление - приведенное к уровню моря атмосферное давление.
Po - Атмосферное давление - измеренное на уровне метеостанции атмосферное давление.
Tmin - Минимальная температура - минимум температуры воздуха на высоте 2 м над землей.
Tmax - Максимальная температура - максимум температуры воздуха на высоте 2 м над землей.
R - Количество осадков - Количество выпавших осадков за период времени, мм. При наведении курсора мыши на число - период времени, за который выпало указанное количество осадков.
R24 - Количество осадков - Количество выпавших осадков за 24 часа, мм.
S - Снежный покров - Высота снежного покрова, см. При наведении курсора мыши на число - состояние снежного покрова и степень покрытия местности в баллах.